Location: Bennemühlen
(52.5740°N, 9.7135°E)
Time: 03:13:25
(UTC+00:00)

A-11 Canister half - Pass Details

Date: 24 February 2026
Orbit: 1513 x 1687 km, 47.2° (Epoch: 13 March)

Event Time Altitude Azimuth Distance (km) Brightness Sun altitude
Rises 02:50:29 0° 283° (WNW) 4,870 - -31.6°
Reaches altitude 10° 02:56:54 10° 253° (WSW) 3,832 - -30.7°
Maximum altitude 02:59:25 11° 238° (WSW) 3,711 - -30.4°
Drops below altitude 10° 03:01:54 10° 222° (SW) 3,790 - -30.1°
Sets 03:08:10 0° 192° (SSW) 4,722 - -29.2°
